[[{"header":{"parameterUnit":"m.s-1","parameterCategory":1,"la1":30.2991,"la2":30.254,"lo1":-89.0895,"lo2":-89.0444,"dy":0.0017,"dx":0.0017,"nx":28,"ny":28,"refTime":"2023-10-10T21:00:00:Z","depth":0,"parameterNumber":2,"parameterNumberName":"U-component_of_WINDS"},"data":[0,0,0,0,0,0,0,0,0,0,0,0,0,0,0,0,0,0,0,0,0,0,0,0,0,0,0,0,0,0,0,0,0,0,0,0,0,0,0,0,0,0,0,0,0,0,0,0,0,0,0,0,0,0,0,0,0,0,-6.6382,-6.6385,0,-6.6724,-6.6728,-6.6732,-6.6672,-6.6666,-6.666,-6.6655,-6.7001,-6.7016,-6.703,0,0,0,0,0,0,0,0,0,0,0,0,0,-6.567,-6.5683,-6.6381,-6.6385,-6.639,-6.6724,-6.6728,-6.6733,-6.6673,-6.6666,-6.6659,-6.6652,-6.6996,-6.7014,-6.7032,0,0,0,0,0,0,0,0,0,0,0,0,0,-6.5992,-6.5688,-6.638,-6.64,-6.6406,-6.6723,-6.6728,-6.6734,-6.6675,-6.6666,-6.6657,-6.6649,-6.6991,-6.7012,-6.7034,-6.7351,0,0,-6.7102,-6.7112,0,0,0,0,0,0,0,0,-6.5974,-6.6018,-6.6393,-6.64,-6.6406,-6.6646,-6.6604,-6.6941,-6.6677,-6.6573,-6.6655,-6.6644,-6.689,-6.692,-6.7004,-6.7367,-6.7382,-6.7104,-6.7117,-6.7127,-6.7133,0,0,0,0,0,0,0,-6.5952,-6.6003,-6.6517,-6.6399,-6.6407,-6.6391,-6.6426,-6.6668,-6.6777,-6.6581,-6.6578,-6.6619,-6.6892,-6.6983,-6.7012,-6.7387,-6.7103,-6.7123,-6.7137,-6.7145,-6.8029,-6.8039,0,0,0,0,0,0,-6.5924,-6.5985,-6.6506,-6.6527,-6.6164,-6.6411,-6.6451,-6.6578,-6.6775,-6.6796,-6.6626,-6.6615,-6.6949,-6.6986,-6.7024,-6.741,-6.7127,-6.7148,-6.716,-6.8019,-6.8032,-6.8043,0,0,0,0,0,0,-6.5909,-6.5971,-6.6492,-6.6255,-6.632,-6.6433,-6.6576,-6.659,-6.6681,-6.6809,-6.6828,-6.67,-6.6943,-6.6992,-6.7271,-6.7421,-6.7158,-6.7178,-6.8007,-6.8023,-6.8037,-6.8184,0,0,0,0,0,0,-6.5889,-6.5966,-6.6089,-6.6259,-6.6333,-6.6736,-6.6585,-6.6603,-6.672,-6.6708,-6.6883,-6.6903,-6.694,-6.7238,-6.7293,-6.7447,-6.7195,-6.7994,-6.8014,-6.8032,-6.8167,-6.8203,-6.8234,0,0,0,0,0,-6.5864,-6.6116,-6.6096,-6.6159,-6.649,-6.6745,-6.6787,-6.6826,-6.6732,-6.6856,-6.6938,-6.6897,-6.7395,-6.7267,-6.7328,-6.7491,-6.7985,-6.8009,-6.8031,-6.8152,-6.8196,-6.8233,0,0,0,0,0,0,-6.5959,-6.6138,-6.6118,-6.6433,-6.6574,-6.6734,-6.6892,-6.6871,-6.7041,-6.7023,-6.7062,-6.7102,-6.7385,-6.7465,-6.732,-6.7809,-6.7677,-6.7713,-6.7748,-6.779,-6.7823,-6.78,-6.7214,0,0,0,0,0,-6.6017,-6.6211,-6.6355,-6.6619,-6.6691,-6.678,-6.6892,-6.691,-6.7057,-6.7116,-6.7219,-6.7362,-6.755,-6.7674,-6.7854,-6.8176,-6.8214,-6.8318,-6.8352,-6.8378,-6.8411,-6.8588,-6.8637,-6.8118,-6.8117,-6.8117,0,0,-6.6138,-6.626,-6.638,-6.6641,-6.6753,-6.6952,-6.683,-6.7045,-6.7193,-6.7148,-6.7419,-6.7499,-6.7661,-6.7963,-6.8101,-6.8039,-6.8562,-6.8408,-6.8428,-6.8446,-6.8617,-6.8666,-6.871,-6.8133,-6.813,-6.8128,0,0,-6.6462,-6.6573,-6.6806,-6.692,-6.7092,-6.7149,-6.7204,-6.7368,-6.742,-6.7693,-6.7664,-6.7838,-6.8161,-6.8279,-6.8381,-6.8748,-6.8718,-6.8805,-6.8982,-6.9155,-6.9196,-6.9232,-6.9366,-6.9413,-6.8836,-6.8836,-6.8837,0,-6.6591,-6.6891,-6.6927,-6.7147,-6.7263,-6.7232,-6.7469,-6.7577,-6.7797,-6.7878,-6.7804,-6.8211,-6.8317,-6.8648,-6.8737,-6.882,-6.8885,-6.8788,-6.9187,-6.9224,-6.9259,-6.9386,-6.9436,-6.8846,-6.8845,-6.8844,-6.8843,0,-6.7043,-6.7251,-6.7418,-6.7635,-6.7769,-6.7995,-6.8065,-6.8196,-6.8201,-6.8265,-6.8543,-6.8669,-6.8876,-6.8954,-6.8961,-6.9286,-6.9242,-6.9177,-6.9046,-6.9317,-6.9438,-6.9487,-6.886,-6.8857,-6.8854,-6.8851,0,0,-6.7439,-6.7673,-6.7734,-6.7833,-6.8019,-6.818,-6.8403,-6.8607,-6.872,-6.8871,-6.9061,-6.9335,-6.9277,-6.9393,-6.9411,-6.9562,-6.9848,-6.9479,-6.9483,-6.9546,-7.0217,-7.0267,-7.0324,-6.9827,-6.9836,-6.9844,-7.0204,0,-6.7782,-6.8182,-6.8221,-6.8577,-6.8771,-6.8744,-6.8938,-6.9073,-6.9138,-6.931,-6.938,-6.9576,-6.9483,-6.9553,-6.9701,-6.9782,-6.9984,-6.9756,-7.0004,-7.0013,-6.9969,-7.0386,-7.0441,-7.0775,-7.0251,-7.0259,-7.0265,0,-6.8238,-6.8407,-6.8784,-6.8944,-6.9026,-6.9202,-6.9392,-6.9557,-6.9708,-6.9744,-6.9874,-6.9873,-7.0102,-6.9958,-7.0275,-7.012,-7.0222,-7.0278,-7.0291,-7.0319,-7.0158,-7.0429,-7.0882,-7.0934,-7.0339,-7.0333,-7.0328,0,-6.8493,-6.8814,-6.9082,-6.9166,-6.9359,-6.9483,-6.9568,-6.9711,-6.9831,-6.9996,-7.0074,-7.0262,-7.0366,-7.0511,-7.056,-7.0451,-7.0876,-7.0736,-7.0914,-7.0913,-7.1008,-7.1002,-7.1488,-7.1068,-7.1067,-7.1066,-7.1065,0,-6.8876,-6.9108,-6.9199,-6.9365,-6.9624,-6.9664,-6.9919,-6.9998,-7.0125,-7.0303,-7.0288,-7.0456,-7.0509,-7.0685,-7.0724,-7.0982,-7.1028,-7.1064,-7.1073,-7.1068,-7.1064,-7.1139,-7.1119,-7.108,-7.1077,-7.1074,-7.1072,0,-6.9207,-6.9277,-6.9568,-6.9726,-6.9772,-6.9956,-7.0091,-7.025,-7.0311,-7.0538,-7.0593,-7.0689,-7.0897,-7.0959,-7.1206,-7.1232,-7.1536,-7.1521,-7.1486,-7.1488,-7.1663,-7.1647,-7.2218,-7.2296,-7.1821,-7.1825,-7.1829,0,-6.9448,-6.9627,-6.9806,-6.9926,-7.0017,-7.021,-7.0333,-7.0378,-7.0507,-7.0693,-7.0829,-7.1034,-7.1201,-7.1532,-7.1623,-7.1813,-7.1805,-7.1992,-7.1834,-7.1824,-7.1812,-7.1803,-7.1821,-7.2023,-7.2028,-7.2032,-7.2035,0,-6.987,-6.9896,-7.0075,-7.0269,-7.0416,-7.0569,-7.0716,-7.0814,-7.088,-7.1025,-7.1238,-7.1368,-7.1622,-7.1826,-7.2019,-7.2104,-7.2083,-7.2083,-7.2135,-7.2135,-7.2109,-7.2129,-7.1572,-7.2071,-7.2068,-7.2065,-7.2063,-7.2062,-7.0166,-7.0325,-7.0476,-7.0677,-7.0792,-7.093,-7.1088,-7.117,-7.1349,-7.1561,-7.1575,-7.1806,-7.1951,-7.2209,-7.2304,-7.2484,-7.243,-7.2504,-7.2523,-7.2542,-7.2558,-7.2077,-7.2518,-7.2517,-7.2517,-7.2516,-7.2515,0,-7.059,-7.0686,-7.087,-7.1078,-7.1236,-7.1201,-7.1362,-7.1496,-7.17,-7.1838,-7.2003,-7.2248,-7.2445,-7.2552,-7.2748,-7.2872,-7.2867,-7.2922,-7.2915,-7.2936,-7.2594,-7.2531,-7.2923,-7.2923,-7.2923,-7.2923,-7.2923,-7.2923,-7.083,-7.1097,-7.1141,-7.1465,-7.1558,-7.1787,-7.1882,-7.2008,-7.212,-7.2394,-7.2559,-7.2628,-7.2754,-7.2959,-7.3138,-7.3164,-7.3239,-7.3302,-7.3322,-7.3001,-7.296,-7.292,-7.2862,-7.3317,-7.3317,-7.3649,-7.3652,-7.3655]},{"header":{"parameterUnit":"m.s-1","parameterCategory":1,"la1":30.2991,"la2":30.254,"lo1":-89.0895,"lo2":-89.0444,"dy":0.0017,"dx":0.0017,"nx":28,"ny":28,"refTime":"2023-10-10T21:00:00:Z","depth":0,"parameterNumber":3,"parameterNumberName":"V-component_of_WINDS"},"data":[0,0,0,0,0,0,0,0,0,0,0,0,0,0,0,0,0,0,0,0,0,0,0,0,0,0,0,0,0,0,0,0,0,0,0,0,0,0,0,0,0,0,0,0,0,0,0,0,0,0,0,0,0,0,0,0,0,0,-9.6799,-9.6797,0,-9.6615,-9.6613,-9.6611,-9.6354,-9.635,-9.6345,-9.6341,-9.6152,-9.6151,-9.615,0,0,0,0,0,0,0,0,0,0,0,0,0,-9.6927,-9.6926,-9.68,-9.6797,-9.6795,-9.6616,-9.6613,-9.6611,-9.6355,-9.6349,-9.6344,-9.6339,-9.6152,-9.6151,-9.615,0,0,0,0,0,0,0,0,0,0,0,0,0,-9.682,-9.6926,-9.68,-9.6646,-9.663,-9.6616,-9.6613,-9.661,-9.6356,-9.6349,-9.6343,-9.6337,-9.6152,-9.6151,-9.6149,-9.6272,0,0,-9.6145,-9.6144,0,0,0,0,0,0,0,0,-9.6827,-9.6816,-9.6671,-9.6656,-9.6639,-9.6501,-9.6588,-9.6497,-9.6357,-9.646,-9.6341,-9.6333,-9.6273,-9.6261,-9.6241,-9.6263,-9.6255,-9.6145,-9.6144,-9.6143,-9.6143,0,0,0,0,0,0,0,-9.6834,-9.6822,-9.6726,-9.6669,-9.6649,-9.6585,-9.6562,-9.657,-9.6406,-9.645,-9.6431,-9.6413,-9.6263,-9.6243,-9.6235,-9.6252,-9.6145,-9.6144,-9.6143,-9.6142,-9.6361,-9.6368,0,0,0,0,0,0,-9.6865,-9.683,-9.6732,-9.6721,-9.6718,-9.6588,-9.6563,-9.6552,-9.6405,-9.6376,-9.6419,-9.6402,-9.6249,-9.6237,-9.6227,-9.6358,-9.6143,-9.6142,-9.6141,-9.6355,-9.6363,-9.637,0,0,0,0,0,0,-9.6869,-9.6859,-9.674,-9.677,-9.675,-9.6593,-9.6582,-9.6552,-9.6531,-9.6381,-9.635,-9.6429,-9.6243,-9.6229,-9.6262,-9.6348,-9.6141,-9.614,-9.6347,-9.6357,-9.6366,-9.6623,0,0,0,0,0,0,-9.6873,-9.6862,-9.6907,-9.6773,-9.675,-9.678,-9.6588,-9.6553,-9.653,-9.6506,-9.6382,-9.6355,-9.6237,-9.6266,-9.6261,-9.6342,-9.6139,-9.6338,-9.6351,-9.6363,-9.6606,-9.6641,-9.667,0,0,0,0,0,-9.6879,-9.6987,-9.6911,-9.69,-9.6804,-9.6785,-9.6771,-9.6633,-9.6538,-9.6581,-9.6484,-9.6359,-9.634,-9.6271,-9.6263,-9.6346,-9.6332,-9.6348,-9.6362,-9.6592,-9.6634,-9.667,0,0,0,0,0,0,-9.7135,-9.6967,-9.688,-9.6949,-9.6883,-9.6742,-9.6793,-9.6683,-9.6642,-9.6622,-9.6451,-9.6426,-9.6479,-9.6415,-9.6342,-9.6455,-9.6317,-9.6331,-9.6494,-9.6533,-9.6564,-9.6578,-9.6138,0,0,0,0,0,-9.72,-9.72,-9.7052,-9.7127,-9.7098,-9.6953,-9.6939,-9.6838,-9.6763,-9.6734,-9.6639,-9.6571,-9.6548,-9.6537,-9.6509,-9.6596,-9.6564,-9.6649,-9.6681,-9.6708,-9.6722,-9.676,-9.6795,-9.6419,-9.6419,-9.6419,0,0,-9.7334,-9.7241,-9.7251,-9.7176,-9.7113,-9.7115,-9.693,-9.6941,-9.694,-9.6735,-9.6759,-9.6688,-9.66,-9.666,-9.6682,-9.6609,-9.6819,-9.6727,-9.675,-9.6749,-9.6779,-9.6815,-9.6847,-9.643,-9.6428,-9.6426,0,0,-9.7577,-9.7509,-9.7562,-9.7503,-9.741,-9.7311,-9.7325,-9.72,-9.7144,-9.7166,-9.7011,-9.7008,-9.6974,-9.6916,-9.6883,-9.7104,-9.6986,-9.71,-9.7266,-9.7306,-9.7335,-9.7361,-9.7437,-9.7467,-9.7114,-9.7115,-9.7115,0,-9.7754,-9.7752,-9.7603,-9.7623,-9.7593,-9.7408,-9.7459,-9.7409,-9.7313,-9.7296,-9.7216,-9.7167,-9.7095,-9.7138,-9.7192,-9.7172,-9.718,-9.7112,-9.7343,-9.7367,-9.7389,-9.7459,-9.7489,-9.7129,-9.7128,-9.7126,-9.7125,0,-9.7973,-9.7974,-9.8028,-9.7939,-9.7915,-9.7952,-9.7807,-9.7801,-9.7703,-9.7613,-9.7636,-9.7543,-9.7491,-9.7494,-9.7399,-9.7523,-9.748,-9.7375,-9.7232,-9.7441,-9.7505,-9.7531,-9.715,-9.7144,-9.714,-9.7137,0,0,-9.8373,-9.82,-9.8222,-9.8178,-9.8062,-9.8059,-9.8086,-9.8036,-9.8033,-9.7972,-9.7989,-9.7964,-9.7865,-9.7827,-9.7723,-9.7758,-9.7935,-9.7646,-9.7642,-9.7702,-9.8063,-9.8142,-9.8176,-9.7857,-9.7862,-9.7866,-9.807,0,-9.8592,-9.8628,-9.8495,-9.8565,-9.8563,-9.8386,-9.8409,-9.834,-9.8256,-9.8241,-9.8148,-9.8132,-9.8004,-9.7979,-9.8006,-9.7909,-9.8006,-9.7892,-9.7869,-9.787,-9.7895,-9.821,-9.8293,-9.8491,-9.8094,-9.8098,-9.8101,0,-9.8852,-9.8805,-9.8876,-9.8754,-9.8748,-9.8771,-9.8712,-9.8701,-9.8618,-9.8554,-9.8513,-9.8391,-9.8407,-9.8273,-9.829,-9.8216,-9.8199,-9.8149,-9.8153,-9.8144,-9.7997,-9.8207,-9.8551,-9.858,-9.8139,-9.8136,-9.8133,0,-9.9134,-9.9088,-9.9123,-9.9092,-9.8951,-9.8971,-9.8913,-9.8824,-9.8801,-9.875,-9.8733,-9.8685,-9.8658,-9.8623,-9.8491,-9.8406,-9.8524,-9.8379,-9.8469,-9.8473,-9.85,-9.85,-9.8844,-9.8494,-9.8494,-9.8493,-9.8493,0,-9.9391,-9.9441,-9.9248,-9.927,-9.9319,-9.9165,-9.9218,-9.9142,-9.9064,-9.9066,-9.8911,-9.8916,-9.8743,-9.8729,-9.8626,-9.8655,-9.8644,-9.8592,-9.8563,-9.8604,-9.8611,-9.8589,-9.8571,-9.8501,-9.8499,-9.8498,-9.8496,0,-9.9714,-9.9587,-9.9613,-9.9478,-9.9445,-9.9487,-9.937,-9.9383,-9.929,-9.9295,-9.9287,-9.9141,-9.9115,-9.8981,-9.8925,-9.8855,-9.8919,-9.8864,-9.8948,-9.8929,-9.9026,-9.9018,-9.9366,-9.9402,-9.9033,-9.9037,-9.904,0,-9.9886,-9.9919,-9.9787,-9.9778,-9.9727,-9.9715,-9.9691,-9.954,-9.9521,-9.9428,-9.9453,-9.9415,-9.9376,-9.9344,-9.9231,-9.9187,-9.9128,-9.9253,-9.912,-9.9159,-9.9126,-9.9125,-9.9126,-9.9281,-9.9286,-9.929,-9.9293,0,-10.0203,-10.0138,-10.011,-10.006,-10.0036,-9.9989,-9.9933,-9.9934,-9.9766,-9.9753,-9.9725,-9.9696,-9.9638,-9.9601,-9.9537,-9.9475,-9.9356,-9.9336,-9.9354,-9.9395,-9.9441,-9.9415,-9.9023,-9.9328,-9.9325,-9.9322,-9.932,-9.9319,-10.0453,-10.0474,-10.0384,-10.0357,-10.0299,-10.025,-10.0255,-10.0162,-10.0137,-10.0078,-9.9991,-9.9975,-9.9887,-9.9789,-9.9737,-9.972,-9.9652,-9.9679,-9.9686,-9.9694,-9.9714,-9.9446,-9.9708,-9.9707,-9.9706,-9.9705,-9.9704,0,-10.076,-10.0694,-10.0671,-10.0597,-10.0575,-10.0466,-10.0398,-10.0386,-10.0375,-10.0304,-10.027,-10.0237,-10.02,-10.0085,-10.0036,-10.0045,-9.9989,-10.0037,-10.0034,-10.002,-9.9779,-9.9767,-10.0083,-10.0083,-10.0083,-10.0083,-10.0083,-10.0083,-10.0918,-10.0947,-10.0871,-10.0869,-10.08,-10.0785,-10.0754,-10.0707,-10.065,-10.0621,-10.059,-10.0515,-10.0425,-10.0368,-10.0329,-10.0295,-10.0283,-10.0349,-10.0298,-10.0074,-10.0038,-10.0003,-9.9991,-10.0349,-10.0349,-10.054,-10.0542,-10.0543]}]]